Change the Weather History Date:

Wednesday, February 19, 2014

  Actual Average Record
Temperature  
Mean Temperature 34 °F -  
Max Temperature 42 °F 37 °F 53 °F (2002)
Min Temperature 26 °F 23 °F -4 °F (2015)
Degree Days  
Heating Degree Days 31    
Moisture  
Dew Point 31 °F    
Average Humidity 82    
Maximum Humidity 100    
Minimum Humidity 61    
Precipitation  
Precipitation 0.06 in - - ()
Sea Level Pressure  
Sea Level Pressure 29.89 in    
Wind  
Wind Speed 11 mph (SW)    
Max Wind Speed 15 mph    
Max Gust Speed 18 mph    
Visibility 10 miles    
Events Rain    
Averages and records for this station are not official NWS values.
T = Trace of Precipitation, MM = Missing Value Source: NWS Daily Summary

Daily Weather History Graph

Daily Weather History Graph

Search for Another Location

Airport or City:

Trip Planner

Search our weather history database for the weather conditions in past years. The results will help you decide how hot, cold, wet, or windy it might be!

Date:

Astronomy

Feb. 19, 2014 Rise Set
Actual Time 6:55 AM CST 5:45 PM CST
Civil Twilight 6:27 AM CST 6:13 PM CST
Nautical Twilight 5:55 AM CST 6:45 PM CST
Astronomical Twilight 5:23 AM CST 7:17 PM CST
Moon 10:42 PM CST (2/19) 8:58 AM CST (2/19)
Length of Visible Light 11h 45m
Length of Day
10h 49m
Waning Gibbous, 79% of the Moon is Illuminated
Feb 19
Waning Gibbous
Feb 22
Last Quarter
Mar 1
New
Mar 8
First Quarter
Mar 16
Full

Hourly Weather History & Observations

Time (CST) Temp. Windchill Dew Point Humidity Pressure Visibility Wind Dir Wind Speed Gust Speed Precip Events Conditions
12:15 AM 37.4 °F 28.5 °F 32.0 °F 81% 29.80 in 10.0 mi WNW 15.0 mph - N/A   Clear
12:35 AM 35.6 °F 26.6 °F 32.0 °F 87% 29.81 in 10.0 mi WNW 13.8 mph - N/A   Clear
12:55 AM 35.6 °F 27.1 °F 32.0 °F 87% 29.82 in 10.0 mi WNW 12.7 mph - N/A   Clear
1:15 AM 35.6 °F 27.1 °F 32.0 °F 87% 29.82 in 10.0 mi West 12.7 mph - N/A   Clear
1:35 AM 35.6 °F 27.1 °F 32.0 °F 87% 29.82 in 10.0 mi WNW 12.7 mph - N/A   Clear
1:55 AM 35.6 °F 26.6 °F 32.0 °F 87% 29.83 in 10.0 mi WNW 13.8 mph - N/A   Clear
2:15 AM 35.6 °F 26.6 °F 32.0 °F 87% 29.84 in 10.0 mi West 13.8 mph - N/A   Clear
2:35 AM 33.8 °F 24.8 °F 32.0 °F 93% 29.84 in 10.0 mi West 12.7 mph - N/A   Clear
2:55 AM 33.8 °F 24.8 °F 30.2 °F 87% 29.85 in 10.0 mi West 12.7 mph - N/A   Clear
3:15 AM 33.8 °F 25.3 °F 30.2 °F 87% 29.86 in 10.0 mi WNW 11.5 mph - N/A   Clear
3:35 AM 32.0 °F 24.2 °F 30.2 °F 93% 29.86 in 10.0 mi WNW 9.2 mph - N/A   Clear
3:55 AM 32.0 °F 23.0 °F 30.2 °F 93% 29.87 in 10.0 mi West 11.5 mph - N/A   Clear
4:15 AM 32.0 °F 23.6 °F 30.2 °F 93% 29.87 in 10.0 mi West 10.4 mph - N/A   Clear
4:35 AM 32.0 °F 24.2 °F 30.2 °F 93% 29.89 in 10.0 mi West 9.2 mph - N/A   Clear
4:55 AM 30.2 °F 20.8 °F 30.2 °F 100% 29.89 in 10.0 mi West 11.5 mph - N/A   Clear
5:15 AM 30.2 °F 21.3 °F 28.4 °F 93% 29.89 in 10.0 mi WNW 10.4 mph - N/A   Clear
5:35 AM 30.2 °F 21.3 °F 28.4 °F 93% 29.90 in 10.0 mi WNW 10.4 mph - N/A   Clear
5:55 AM 30.2 °F 20.2 °F 28.4 °F 93% 29.91 in 10.0 mi West 12.7 mph - N/A   Clear
6:15 AM 30.2 °F 20.8 °F 28.4 °F 93% 29.91 in 10.0 mi West 11.5 mph - N/A   Clear
6:35 AM 30.2 °F 22.6 °F 28.4 °F 93% 29.91 in 10.0 mi WNW 8.1 mph - N/A   Clear
6:55 AM 26.6 °F 18.2 °F 26.6 °F 100% 29.91 in 9.0 mi NW 8.1 mph - N/A   Clear
7:15 AM 28.4 °F 19.7 °F 28.4 °F 100% 29.91 in 9.0 mi NW 9.2 mph - N/A   Clear
7:35 AM 28.4 °F 20.4 °F 28.4 °F 100% 29.92 in 10.0 mi WNW 8.1 mph - N/A   Clear
7:55 AM 28.4 °F 19.7 °F 26.6 °F 93% 29.94 in 9.0 mi WSW 9.2 mph - N/A   Clear
8:15 AM 30.2 °F 23.4 °F 28.4 °F 93% 29.94 in 9.0 mi West 6.9 mph - N/A   Clear
8:35 AM 32.0 °F 25.6 °F 28.4 °F 87% 29.95 in 10.0 mi West 6.9 mph - N/A   Clear
8:55 AM 32.0 °F 24.2 °F 30.2 °F 93% 29.95 in 10.0 mi West 9.2 mph - N/A   Clear
9:15 AM 33.8 °F 26.4 °F 30.2 °F 87% 29.96 in 10.0 mi West 9.2 mph - N/A   Clear
9:35 AM 33.8 °F 27.0 °F 30.2 °F 87% 29.96 in 10.0 mi WNW 8.1 mph - N/A   Clear
9:55 AM 35.6 °F 29.9 °F 30.2 °F 81% 29.97 in 10.0 mi West 6.9 mph - N/A   Clear
10:15 AM 35.6 °F 31.7 °F 32.0 °F 87% 29.96 in 10.0 mi WNW 4.6 mph - N/A   Clear
10:35 AM 37.4 °F 31.4 °F 32.0 °F 81% 29.96 in 10.0 mi WSW 8.1 mph - N/A   Clear
10:55 AM 37.4 °F 32.1 °F 32.0 °F 81% 29.96 in 10.0 mi West 6.9 mph - N/A   Clear
11:15 AM 37.4 °F 32.1 °F 32.0 °F 81% 29.97 in 10.0 mi WSW 6.9 mph - N/A   Clear
11:35 AM 39.2 °F 34.2 °F 30.2 °F 70% 29.97 in 10.0 mi West 6.9 mph - N/A   Clear
11:55 AM 41.0 °F 38.0 °F 32.0 °F 70% 29.97 in 10.0 mi WSW 4.6 mph - N/A   Clear
12:15 PM 41.0 °F 37.1 °F 30.2 °F 65% 29.97 in 10.0 mi SSW 5.8 mph - N/A   Clear
12:35 PM 42.8 °F 38.6 °F 30.2 °F 61% 29.96 in 10.0 mi SW 6.9 mph - N/A   Clear
12:55 PM 42.8 °F 37.5 °F 30.2 °F 61% 29.96 in 10.0 mi SW 9.2 mph - N/A   Clear
1:15 PM 42.8 °F 39.3 °F 30.2 °F 61% 29.95 in 10.0 mi SSW 5.8 mph - N/A   Clear
1:35 PM 42.8 °F 41.1 °F 30.2 °F 61% 29.94 in 10.0 mi SSW 3.5 mph - N/A   Clear
1:55 PM 42.8 °F 39.3 °F 30.2 °F 61% 29.94 in 10.0 mi SSW 5.8 mph - N/A   Clear
2:15 PM 42.8 °F 38.6 °F 32.0 °F 66% 29.94 in 10.0 mi South 6.9 mph - N/A   Clear
2:35 PM 42.8 °F 38.6 °F 30.2 °F 61% 29.94 in 10.0 mi SSW 6.9 mph - N/A   Clear
2:55 PM 42.8 °F 38.6 °F 30.2 °F 61% 29.93 in 10.0 mi South 6.9 mph - N/A   Clear
3:15 PM 42.8 °F 39.3 °F 32.0 °F 66% 29.92 in 10.0 mi SE 5.8 mph - N/A   Clear
3:35 PM 41.0 °F 35.8 °F 32.0 °F 70% 29.92 in 10.0 mi SE 8.1 mph - N/A   Clear
3:55 PM 41.0 °F 35.8 °F 32.0 °F 70% 29.91 in 10.0 mi ESE 8.1 mph - N/A   Clear
4:15 PM 39.2 °F 34.2 °F 32.0 °F 75% 29.90 in 10.0 mi SE 6.9 mph - N/A   Clear
4:35 PM 39.2 °F 34.2 °F 32.0 °F 75% 29.89 in 10.0 mi SE 6.9 mph - N/A   Clear
4:55 PM 39.2 °F 33.6 °F 32.0 °F 75% 29.89 in 10.0 mi SSE 8.1 mph - N/A   Clear
5:15 PM 39.2 °F 32.5 °F 32.0 °F 75% 29.88 in 10.0 mi SE 10.4 mph - N/A   Clear
5:35 PM 37.4 °F 32.1 °F 32.0 °F 81% 29.89 in 10.0 mi SSE 6.9 mph - N/A   Clear
5:55 PM 37.4 °F 30.8 °F 32.0 °F 81% 29.89 in 10.0 mi SSE 9.2 mph - N/A   Clear
6:15 PM 37.4 °F 30.8 °F 32.0 °F 81% 29.88 in 10.0 mi SSE 9.2 mph - N/A   Clear
6:35 PM 37.4 °F 29.3 °F 32.0 °F 81% 29.87 in 10.0 mi SE 12.7 mph - N/A   Clear
6:55 PM 39.2 °F 31.6 °F 32.0 °F 75% 29.85 in 10.0 mi SE 12.7 mph - N/A   Clear
7:15 PM 37.4 °F 29.3 °F 30.2 °F 75% 29.85 in 10.0 mi SE 12.7 mph - N/A   Partly Cloudy
7:35 PM 37.4 °F 29.8 °F 30.2 °F 75% 29.84 in 10.0 mi SE 11.5 mph 18.4 mph N/A   Clear
7:55 PM 37.4 °F 30.8 °F 30.2 °F 75% 29.85 in 10.0 mi SSE 9.2 mph - N/A   Scattered Clouds
8:15 PM 37.4 °F 30.3 °F 30.2 °F 75% 29.86 in 10.0 mi SSE 10.4 mph - N/A   Mostly Cloudy
8:35 PM 37.4 °F 30.3 °F 30.2 °F 75% 29.85 in 10.0 mi SE 10.4 mph - N/A   Overcast
8:55 PM 37.4 °F 29.8 °F 30.2 °F 75% 29.84 in 10.0 mi SSE 11.5 mph 17.3 mph N/A   Mostly Cloudy
9:15 PM 37.4 °F 29.8 °F 30.2 °F 75% 29.84 in 10.0 mi SE 11.5 mph - N/A   Mostly Cloudy
9:55 PM 37.4 °F 30.3 °F 32.0 °F 81% 29.82 in 10.0 mi ESE 10.4 mph - N/A   Overcast
10:20 PM 35.6 °F 28.6 °F 32.0 °F 87% 29.83 in 10.0 mi SE 9.2 mph - N/A   Overcast
10:35 PM 37.4 °F 30.8 °F 32.0 °F 81% 29.82 in 4.0 mi SE 9.2 mph 16.1 mph N/A Rain Light Rain
10:55 PM 37.4 °F 30.3 °F 33.8 °F 87% 29.80 in 5.0 mi SE 10.4 mph - 0.02 in Rain Light Rain
11:15 PM 35.6 °F 28.6 °F 33.8 °F 93% 29.77 in 5.0 mi ESE 9.2 mph - N/A Rain Light Rain
11:35 PM 35.6 °F 27.5 °F 33.8 °F 93% 29.77 in 4.0 mi ESE 11.5 mph - N/A Rain Light Rain
11:55 PM 35.6 °F 27.5 °F 33.8 °F 93% 29.75 in 9.0 mi SE 11.5 mph - 0.04 in   Overcast